TimeCST,TemperatureF,Dew PointF,Humidity,Sea Level PressureIn,VisibilityMPH,Wind Direction,Wind SpeedMPH,Gust SpeedMPH,PrecipitationIn,Events,Conditions,WindDirDegrees,DateUTC
12:53 AM,41.0,25.0,53,30.14,10.0,NNE,5.8,-,N/A,,Clear,30,2013-11-18 06:53:00
1:53 AM,35.1,26.1,70,30.15,10.0,Calm,Calm,-,N/A,,Clear,0,2013-11-18 07:53:00
2:53 AM,32.0,27.0,82,30.18,10.0,West,3.5,-,N/A,,Clear,270,2013-11-18 08:53:00
3:53 AM,33.1,28.0,82,30.17,10.0,NNW,3.5,-,N/A,,Clear,330,2013-11-18 09:53:00
4:53 AM,30.9,28.0,89,30.19,10.0,North,5.8,-,N/A,,Clear,360,2013-11-18 10:53:00
5:53 AM,33.1,28.0,82,30.22,10.0,North,5.8,-,N/A,,Clear,10,2013-11-18 11:53:00
6:53 AM,37.0,28.9,73,30.23,10.0,North,10.4,-,N/A,,Clear,10,2013-11-18 12:53:00
7:53 AM,39.9,30.0,68,30.25,10.0,NNE,6.9,-,N/A,,Clear,20,2013-11-18 13:53:00
8:53 AM,48.0,30.9,52,30.27,10.0,NNE,6.9,-,N/A,,Clear,20,2013-11-18 14:53:00
9:53 AM,53.1,30.9,43,30.27,10.0,NE,8.1,-,N/A,,Clear,40,2013-11-18 15:53:00
10:53 AM,59.0,30.9,35,30.27,10.0,NE,6.9,-,N/A,,Clear,50,2013-11-18 16:53:00
11:53 AM,62.1,27.0,26,30.25,10.0,East,8.1,19.6,N/A,,Clear,90,2013-11-18 17:53:00
12:53 PM,64.0,25.0,23,30.23,10.0,East,6.9,-,N/A,,Clear,80,2013-11-18 18:53:00
1:53 PM,64.0,21.9,20,30.22,10.0,East,6.9,-,N/A,,Clear,90,2013-11-18 19:53:00
2:53 PM,66.0,21.9,19,30.21,10.0,East,9.2,-,N/A,,Clear,100,2013-11-18 20:53:00
3:53 PM,64.0,21.0,19,30.21,10.0,East,9.2,-,N/A,,Clear,90,2013-11-18 21:53:00
4:53 PM,57.0,24.1,28,30.21,10.0,East,4.6,-,N/A,,Clear,80,2013-11-18 22:53:00
5:53 PM,50.0,26.1,39,30.21,10.0,ENE,6.9,-,N/A,,Clear,70,2013-11-18 23:53:00
6:53 PM,48.9,28.0,44,30.22,10.0,East,5.8,-,N/A,,Clear,90,2013-11-19 00:53:00
7:53 PM,50.0,27.0,41,30.21,10.0,East,6.9,-,N/A,,Clear,90,2013-11-19 01:53:00
8:53 PM,51.1,26.1,38,30.21,10.0,East,5.8,-,N/A,,Clear,90,2013-11-19 02:53:00
9:53 PM,46.9,28.0,48,30.21,10.0,ESE,4.6,-,N/A,,Clear,110,2013-11-19 03:53:00
10:53 PM,45.0,28.9,53,30.21,10.0,East,3.5,-,N/A,,Clear,100,2013-11-19 04:53:00
11:53 PM,43.0,30.9,62,30.20,10.0,East,3.5,-,N/A,,Clear,90,2013-11-19 05:53:00